Weather History for Winnipeg, MB

Change the Weather History Date:

Saturday, August 3, 2013

  Actual Average Record
Temperature  
Mean Temperature 57 °F -  
Max Temperature 72 °F 76 °F 87 °F (2001)
Min Temperature 42 °F 55 °F 42 °F (2013)
Degree Days  
Heating Degree Days 8    
Growing Degree Days 7 (Base 50)    
Moisture  
Dew Point 48 °F    
Average Humidity 70    
Maximum Humidity 100    
Minimum Humidity 42    
Precipitation  
Precipitation 0.00 in - - ()
Sea Level Pressure  
Sea Level Pressure 30.23 in    
Wind  
Wind Speed 4 mph ()    
Max Wind Speed 8 mph    
Max Gust Speed -    
Visibility 14.1 miles    
Events      
Averages and records for this station are not official NWS values.
T = Trace of Precipitation, MM = Missing Value Source: Averaged Metar Reports

Daily Weather History Graph

Daily Weather History Graph

Search for Another Location

Airport:

Trip Planner

Search our weather history database for the weather conditions in past years. The results will help you decide how hot, cold, wet, or windy it might be!

Date:

Astronomy

Aug. 03, 2013 Rise Set
Actual Time 6:01 AM CDT 9:07 PM CDT
Civil Twilight 5:23 AM CDT 9:45 PM CDT
Nautical Twilight 4:33 AM CDT 10:34 PM CDT
Astronomical Twilight 3:30 AM CDT 11:36 PM CDT
Moon 3:08 AM CDT (8/3) 6:53 PM CDT (8/3)
Length of Visible Light 16h 21m
Length of Day
15h 05m
Waning Crescent, 9% of the Moon is Illuminated
Aug 3
Waning Crescent
Aug 6
New
Aug 14
First Quarter
Aug 20
Full
Aug 28
Last Quarter

Hourly Weather History & Observations

Time (CDT) Temp. Windchill Dew Point Humidity Pressure Visibility Wind Dir Wind Speed Gust Speed Precip Events Conditions
12:00 AM 44.6 °F 41.4 °F 42.8 °F 93% 30.15 in 15.0 mi NNW 5.8 mph - N/A   Clear
1:00 AM 47 °F - 47 °F 98% 30.16 in 9 mi Calm Calm - -  
1:00 AM 46.4 °F 43.5 °F 42.8 °F 87% 30.16 in 15.0 mi NW 5.8 mph - N/A   Clear
2:00 AM 44.6 °F 41.4 °F 42.8 °F 93% 30.17 in 15.0 mi NW 5.8 mph - N/A   Clear
3:00 AM 46.4 °F 42.4 °F 44.6 °F 93% 30.18 in 15.0 mi West 8.1 mph - N/A   Clear
4:00 AM 44.6 °F 42.2 °F 42.8 °F 93% 30.19 in 15.0 mi West 4.6 mph - N/A   Clear
5:00 AM 42.8 °F 40.1 °F 41.0 °F 93% 30.20 in 15.0 mi WNW 4.6 mph - N/A   Clear
6:00 AM 42.8 °F 39.3 °F 41.0 °F 93% 30.22 in 15.0 mi NW 5.8 mph - N/A   Mostly Cloudy
7:00 AM 46 °F - 46 °F 100% 30.22 in 9 mi Calm Calm - -  
7:00 AM 46.4 °F 43.5 °F 44.6 °F 93% 30.23 in 15.0 mi NW 5.8 mph - N/A   Mostly Cloudy
8:00 AM 51.8 °F - 50.0 °F 94% 30.25 in 15.0 mi Calm Calm - N/A   Mostly Cloudy
9:00 AM 59.0 °F - 51.8 °F 77% 30.25 in 15.0 mi ENE 2.3 mph - N/A   Scattered Clouds
10:00 AM 62.6 °F - 46.4 °F 55% 30.26 in 15.0 mi ENE 3.5 mph - N/A   Partly Cloudy
11:00 AM 66.2 °F - 46.4 °F 49% 30.27 in 15.0 mi Variable 2.3 mph - N/A   Partly Cloudy
12:00 PM 68.0 °F - 48.2 °F 49% 30.27 in 15.0 mi NNE 5.8 mph - N/A   Scattered Clouds
1:00 PM 69 °F - 51 °F 42% 30.26 in 9 mi Calm Calm - -  
1:00 PM 68.0 °F - 48.2 °F 49% 30.27 in 15.0 mi North 2.3 mph - N/A   Mostly Cloudy
2:00 PM 69.8 °F - 48.2 °F 46% 30.26 in 15.0 mi Calm Calm - N/A   Mostly Cloudy
3:00 PM 69.8 °F - 46.4 °F 43% 30.26 in 15.0 mi NW 6.9 mph - N/A   Mostly Cloudy
4:00 PM 69.8 °F - 50.0 °F 49% 30.25 in 15.0 mi North 4.6 mph - N/A   Mostly Cloudy
5:00 PM 71.6 °F - 50.0 °F 46% 30.25 in 15.0 mi NNE 3.5 mph - N/A   Mostly Cloudy
6:00 PM 69.8 °F - 51.8 °F 53% 30.25 in 15.0 mi North 3.5 mph - N/A   Mostly Cloudy
7:00 PM 71 °F - 55 °F 47% 30.23 in 9 mi Calm Calm - -  
7:00 PM 71.6 °F - 50.0 °F 46% 30.24 in 15.0 mi North 5.8 mph - N/A   Scattered Clouds
8:00 PM 68.0 °F - 53.6 °F 60% 30.23 in 15.0 mi NNW 4.6 mph - N/A   Scattered Clouds
9:00 PM 64.4 °F - 51.8 °F 64% 30.22 in 15.0 mi NE 5.8 mph - N/A   Partly Cloudy
10:00 PM 59.0 °F - 50.0 °F 72% 30.23 in 15.0 mi Calm Calm - N/A   Clear
11:00 PM 59.0 °F - 50.0 °F 72% 30.23 in 15.0 mi SE 3.5 mph - N/A   Clear